Flag for Germany Weather past 2 weeks in Dachau, Bavaria, Germany

Now
54 °F

Passing clouds.


Feels Like: 52 °F
Forecast: 34 / 57 °F
Wind: 7 mph from Northwest

Location: Munich / Franz Josef Strauss Airport

Current Time: Apr 28, 2015 at 4:48:33 AM

Latest Report: Apr 28, 2015 at 4:20 AM


Visibility: N/A

Pressure: 29.59 "Hg

Humidity: 88%

Dew point: 50 °F

Location of DachauLocation

Historic Weather in Dachau — Graph

°F

Dachau temperature yesterday

Maximum temperature yesterday: 72 °F (at 2:50 PM)
Minimum temperature yesterday: 43 °F (at 5:50 AM)
Average temperature yesterday: 59 °F

Past Weeks' High & Low Weather Summary

 TemperatureHumidityPressure
High73 °F (Apr 15, 4:50 PM)100% (Apr 17, 4:20 PM)30.42 "Hg (Apr 17, 4:20 PM)
Low28 °F (Apr 24, 5:50 AM)22% (Apr 15, 5:50 PM)29.47 "Hg (Apr 27, 6:20 PM)
Average52 °F64%30.07 "Hg
* Reported Apr 13 3:20 AM — Apr 28 3:50 AM, Dachau, Weather by CustomWeather, © 2015

Note: Actual official high and low records may vary slightly from our data, if they occured in-between our weather recording intervals... More about our weather records

Advertising

Dachau weather history for previous 24 hours

 ConditionsComfort  
Time TempWeatherWind HumidityBarometerVisibility
3:50 AM
Tue, Apr 28
54 °FPassing clouds.7 mph88%29.59 "HgN/A
3:20 AM54 °FPartly cloudy.5 mph88%29.59 "HgN/A
2:50 AM54 °FPartly cloudy.6 mph88%29.59 "HgN/A
2:20 AM54 °FPassing clouds.6 mph88%29.56 "HgN/A
1:50 AM55 °FPassing clouds.6 mph82%29.56 "HgN/A
1:20 AM55 °FPassing clouds.9 mph88%29.56 "HgN/A
12:50 AM55 °FPartly cloudy.13 mph88%29.56 "HgN/A
12:20 AM55 °FPassing clouds.13 mph88%29.53 "HgN/A
11:50 PM
Mon, Apr 27
55 °FPartly cloudy.8 mph88%29.53 "HgN/A
11:20 PM57 °FThundershowers. Partly cloudy.9 mph82%29.53 "HgN/A
10:50 PM57 °FThunderstorms. Partly cloudy.15 mph82%29.53 "HgN/A
10:20 PM54 °FStrong thunderstorms. Partly cloudy.8 mph82%29.50 "HgN/A
9:50 PM63 °FPartly cloudy.6 mph59%29.47 "HgN/A
9:20 PM64 °FPartly cloudy.5 mph52%29.47 "HgN/A
8:50 PM64 °FBroken clouds.3 mph52%29.47 "HgN/A
8:20 PM66 °FSunny.3 mph52%29.47 "Hg10 mi
7:50 PM68 °FSunny.3 mph46%29.47 "Hg10 mi
7:20 PM70 °FPassing clouds.3 mph43%29.47 "HgN/A
6:50 PM70 °FPassing clouds.5 mph43%29.47 "HgN/A
6:20 PM72 °FPassing clouds.6 mph44%29.47 "HgN/A
5:50 PM72 °FBroken clouds.5 mph41%29.50 "HgN/A
5:20 PM72 °FBroken clouds.3 mph41%29.50 "HgN/A
4:50 PM72 °FBroken clouds.5 mph44%29.50 "HgN/A
4:20 PM70 °FBroken clouds.6 mph40%29.53 "HgN/A
3:50 PM72 °FBroken clouds.3 mph38%29.53 "HgN/A
3:20 PM72 °FBroken clouds.3 mph38%29.53 "HgN/A
2:50 PM72 °FPartly sunny.5 mph44%29.56 "HgN/A
2:20 PM70 °FPartly sunny.5 mph46%29.56 "HgN/A
1:50 PM70 °FPartly sunny.2 mph43%29.56 "HgN/A
1:20 PM68 °FPartly sunny.3 mph49%29.56 "HgN/A
12:50 PM68 °FPartly sunny.2 mph49%29.59 "HgN/A
12:20 PM66 °FPartly sunny.2 mph56%29.59 "HgN/A
11:50 AM64 °FSunny.3 mph64%29.59 "Hg10 mi
11:20 AM64 °FPassing clouds.5 mph60%29.59 "HgN/A
10:50 AM64 °FPassing clouds.7 mph64%29.59 "HgN/A
10:20 AM63 °FPassing clouds.6 mph68%29.59 "HgN/A
9:50 AM61 °FPassing clouds.7 mph68%29.59 "HgN/A
9:20 AM59 °FSunny.6 mph72%29.62 "Hg10 mi
8:50 AM55 °FPassing clouds.3 mph77%29.62 "HgN/A
8:20 AM54 °FSunny.No wind82%29.59 "Hg10 mi
7:50 AM52 °FSunny.2 mph88%29.62 "Hg10 mi
7:20 AM48 °FSunny.1 mph100%29.59 "Hg10 mi
6:50 AM45 °FFog.1 mph100%29.59 "HgN/A
6:20 AM43 °FFog.2 mph93%29.62 "HgN/A
5:50 AM43 °FFog.1 mph100%29.59 "HgN/A
5:20 AM45 °FFog.1 mph93%29.62 "HgN/A
4:50 AM45 °FFog.7 mph93%29.59 "HgN/A
4:20 AM45 °FClear.1 mph93%29.62 "Hg10 mi
Weather by CustomWeather, © 2015

See weather overviewHow to use our weather pages